Lexington, KY

10:02 PM EDT on May 29, 2017 (GMT -0400)
Blue Grass

Weather History for KLEX - October, 2012

Change the Weather History Date:

Wednesday, October 31, 2012

  Actual Average Record
Temperature  
Mean Temperature 43 °F 52 °F  
Max Temperature 47 °F 62 °F 82 °F (1950)
Min Temperature 38 °F 42 °F 22 °F (1887)
Degree Days  
Heating Degree Days 22 13  
Month to date heating degree days 328 271  
Since 1 July heating degree days 402 326  
Cooling Degree Days 0 0  
Month to date cooling degree days 6 25  
Year to date cooling degree days 1359 1188  
Moisture  
Dew Point 34 °F    
Average Humidity 75    
Maximum Humidity 92    
Minimum Humidity 58    
Precipitation  
Precipitation 0.02 in 0.11 in 1.77 in (1942)
Month to date precipitation 1.28 3.13  
Year to date precipitation 34.31 37.71  
Snow  
Snow 0.00 in 0.00 in 0.10 in (1954)
Month to date snowfall 0.0 0.0  
Since 1 July snowfall 0.0 0.0  
Since 1 September snowfall 0.0 0.0  
Snow Depth 0.00 in    
Sea Level Pressure  
Sea Level Pressure 29.79 in    
Wind  
Wind Speed 9 mph (West)    
Max Wind Speed 17 mph    
Max Gust Speed 24 mph    
Visibility 10 miles    
Events Rain    
T = Trace of Precipitation, MM = Missing Value Source: NWS Daily Summary

Daily Weather History Graph

Daily Weather History Graph

Search for Another Location

Airport or City:

Trip Planner

Search our weather history database for the weather conditions in past years. The results will help you decide how hot, cold, wet, or windy it might be!

Date:

Astronomy

Oct. 31, 2012 Rise Set
Actual Time 8:03 AM EDT 6:39 PM EDT
Civil Twilight 7:36 AM EDT 7:07 PM EDT
Nautical Twilight 7:05 AM EDT 7:38 PM EDT
Astronomical Twilight 6:34 AM EDT 8:08 PM EDT
Moon 7:52 PM EDT (10/31) 9:42 AM EDT (10/31)
Length of Visible Light 11h 30m
Length of Day
10h 36m
Full, 97% of the Moon is Illuminated
Oct 31
Full
Nov 6
Last Quarter
Nov 13
New
Nov 20
First Quarter
Nov 28
Full

Hourly Weather History & Observations

Time (EDT) Temp. Windchill Dew Point Humidity Pressure Visibility Wind Dir Wind Speed Gust Speed Precip Events Conditions
12:54 AM 37.9 °F 29.2 °F 36.0 °F 93% 29.74 in 9.0 mi West 15.0 mph 23.0 mph 0.00 in Rain Light Rain
1:44 AM 37.4 °F 29.8 °F 35.6 °F 93% 29.72 in 9.0 mi West 11.5 mph - 0.01 in Rain Light Rain
1:46 AM 37.4 °F 30.3 °F 35.6 °F 93% 29.72 in 8.0 mi West 10.4 mph - 0.01 in Rain Light Rain
1:54 AM 37.9 °F 30.5 °F 36.0 °F 93% 29.74 in 9.0 mi West 11.5 mph - 0.01 in Rain Light Rain
2:54 AM 37.9 °F 32.1 °F 36.0 °F 93% 29.74 in 10.0 mi West 8.1 mph - 0.00 in   Overcast
3:54 AM 39.0 °F 32.8 °F 35.1 °F 86% 29.74 in 10.0 mi West 9.2 mph - 0.00 in Rain Light Rain
4:54 AM 39.0 °F 32.3 °F 34.0 °F 82% 29.75 in 10.0 mi WNW 10.4 mph 24.2 mph 0.00 in Rain Light Rain
5:54 AM 39.0 °F 33.4 °F 34.0 °F 82% 29.75 in 10.0 mi West 8.1 mph - 0.00 in   Overcast
6:54 AM 37.9 °F 32.7 °F 34.0 °F 86% 29.76 in 10.0 mi West 6.9 mph - 0.00 in Rain Light Rain
7:54 AM 37.9 °F 32.1 °F 32.0 °F 79% 29.77 in 10.0 mi West 8.1 mph 18.4 mph 0.00 in   Overcast
8:23 AM 37.4 °F 32.1 °F 33.8 °F 87% 29.75 in 10.0 mi West 6.9 mph - N/A   Overcast
8:30 AM 37.4 °F 31.4 °F 33.8 °F 87% 29.75 in 10.0 mi West 8.1 mph - N/A   Overcast
8:54 AM 37.9 °F 30.9 °F 33.1 °F 83% 29.78 in 10.0 mi West 10.4 mph - N/A   Overcast
9:28 AM 39.2 °F 32.0 °F 32.0 °F 75% 29.77 in 10.0 mi West 11.5 mph - N/A   Overcast
9:54 AM 39.0 °F 31.8 °F 32.0 °F 76% 29.79 in 10.0 mi West 11.5 mph - N/A   Overcast
10:54 AM 41.0 °F 34.3 °F 33.1 °F 73% 29.80 in 10.0 mi West 11.5 mph - N/A   Overcast
11:54 AM 42.1 °F 35.2 °F 33.1 °F 70% 29.80 in 10.0 mi West 12.7 mph 19.6 mph N/A   Overcast
12:54 PM 44.1 °F 37.4 °F 33.1 °F 65% 29.80 in 10.0 mi WNW 13.8 mph 21.9 mph N/A   Overcast
1:54 PM 45.0 °F 38.5 °F 33.1 °F 63% 29.79 in 10.0 mi West 13.8 mph - N/A   Overcast
2:54 PM 46.0 °F 40.6 °F 33.1 °F 61% 29.78 in 10.0 mi West 11.5 mph 19.6 mph N/A   Overcast
3:54 PM 46.0 °F 40.2 °F 33.1 °F 61% 29.78 in 10.0 mi West 12.7 mph - N/A   Overcast
4:54 PM 46.9 °F - 32.0 °F 56% 29.79 in 10.0 mi West 12.7 mph 17.3 mph 0.00 in   Overcast
5:54 PM 46.0 °F 43.1 °F 33.1 °F 61% 29.80 in 10.0 mi WNW 5.8 mph - N/A   Overcast
6:54 PM 45.0 °F 40.1 °F 33.1 °F 63% 29.83 in 10.0 mi WNW 9.2 mph 19.6 mph 0.00 in Rain Light Rain
7:54 PM 42.1 °F 40.2 °F 36.0 °F 79% 29.85 in 10.0 mi NNW 3.5 mph - 0.01 in   Overcast
8:54 PM 43.0 °F 36.8 °F 33.1 °F 68% 29.86 in 10.0 mi WNW 11.5 mph - N/A   Overcast
9:54 PM 41.0 °F 38.0 °F 36.0 °F 82% 29.87 in 10.0 mi NNE 4.6 mph - N/A   Overcast
10:54 PM 41.0 °F 39.0 °F 37.9 °F 89% 29.88 in 10.0 mi ENE 3.5 mph - N/A   Overcast
11:54 PM 41.0 °F - 37.9 °F 89% 29.88 in 10.0 mi Calm Calm - N/A   Overcast